Location: Newark
(48.5667°N, 7.8167°E)
Time: 17:56:10
(UTC+00:00)

METEOR M2 - Visible Passes

Search period start: 03 July 2020 00:00
Search period end: 13 July 2020 00:00
Orbit: 819 x 826 km, 98.5° (Epoch: 03 July)

Date Brightness Start Highest point End Pass type
(mag) Time Alt. Az. Time Alt. Az. Time Alt. Az.
05 Jul ? 20:42:51 10° WSW 20:44:28 11° W 20:46:05 10° WNW visible
06 Jul ? 20:20:50 10° SW 20:24:15 17° W 20:27:42 10° NW visible
10 Jul ? 20:43:44 10° W 20:45:09 11° W 20:46:34 10° WNW visible
11 Jul ? 20:21:34 10° SW 20:24:56 17° W 20:28:18 10° NW visible
12 Jul ? 20:00:29 10° SW 20:04:47 24° W 20:09:05 10° NW visible
